Location: Austin
(30.3000°N, 97.7500°W)
Time: 06:14:54
(UTC-05:00)

Cosmos 2278 Rocket - Pass Details

Date: 16 June 2025
Orbit: 838 x 846 km, 71.0° (Epoch: 07 July)

Event Time Altitude Azimuth Distance (km) Brightness Sun altitude
Exits shadow 03:25:44 32° 310° (NW) 1,399 3.3 -29.8°
Drops below altitude 10° 03:30:06 10° 359° (N) 2,462 5.3 -29.3°
Sets 03:32:48 0° 9° (N) 3,401 6.3 -29.0°
